Content
SEND FEEDBACK

Daily
Averages
Monthly
Summary
United States of America

PORT JERVIS, NEW YORK


Home > North America > United States > New York
Elevation: 428 feet     Latitude: 41 22N     Longitude: 074 42W

WEATHER
 
SELECT A DAY
Number of Records: 157,941;   Date Range: 3/7/98 - 8/28/14
 
SHARE

PRINT THIS DATA

[ ← Previous Day ]
WEATHER ALMANAC - MAY 15, 2014
[ Next Day → ]
[ °C ]   °F
Weather ElementAverageHighLow
Temperature67.3 °F75.9 °F (3:53 pm)62.1 °F (12:53 am)
Dewpoint61.8 °F69.1 °F (2:10 pm)57.2 °F (1:49 am)
Humidity83 %90 % (2:53 am)71 % (3:53 pm)
Barometer30.16 in30.24 in (12:53 am)30.05 in (11:53 pm)
Wind Speed4.9 mph12.7 mph (5:53 pm)
Wind Gust20.7 mph (3:46 pm)
Weather ElementAverage
Visibility7 mi
Wind DirectionENE (83.8 °)

Weather ElementTotal
Precipitation---
Cooling Degree Days4 (Base 65)
Growing Degree Days19 (Base 50)
Averaged from 48 records on May 15, 2014
WEATHER CONDITIONS BREAKOUT
WIND DIRECTION BREAKOUT
WEATHER BY HOUR - MAY 15, 2014
[ °C ]   °F
Local TimeTemperatureDewpointHumidityBarometerVisibilityWind DirectionWind SpeedGust SpeedPrecipitationEventsConditions
12:53 AM62.1 °F57.9 °F86 %30.24 in5.0 miCalmOvercast
1:16 AM62.1 °F57.9 °F86 %30.23 in2.5 miCalmOvercast
1:37 AM62.1 °F57.9 °F86 %30.23 in2.5 miNorth (360°)3.5 mphOvercast
1:49 AM62.6 °F57.2 °F82 %30.23 in3.0 miNNE (20°)3.5 mphOvercast
1:53 AM62.1 °F57.9 °F86 %30.22 in3.0 miNorth (10°)3.5 mphOvercast
2:06 AM62.1 °F57.9 °F86 %30.22 in2.0 miVariable3.5 mphOvercast
2:26 AM62.1 °F57.9 °F86 %30.21 in3.0 miCalmOvercast
2:38 AM62.1 °F57.9 °F86 %30.20 in3.0 miNE (40°)4.6 mphOvercast
2:53 AM62.1 °F59.0 °F90 %30.19 in5.0 miNE (40°)3.5 mphOvercast
3:14 AM62.1 °F57.9 °F86 %30.19 in10.0 miNNE (20°)3.5 mphOvercast
3:53 AM63.0 °F59.0 °F87 %30.18 in10.0 miCalmOvercast
4:16 AM63.0 °F59.0 °F87 %30.19 in6.0 miNE (40°)3.5 mphOvercast
4:43 AM62.1 °F59.0 °F90 %30.19 in2.5 miNorth (10°)3.5 mphOvercast
4:53 AM62.1 °F59.0 °F90 %30.18 in3.0 miNNE (30°)3.5 mphOvercast
5:20 AM62.1 °F59.0 °F90 %30.19 in5.0 miCalmOvercast
5:42 AM62.1 °F59.0 °F90 %30.19 in6.0 miNE (50°)3.5 mphOvercast
5:53 AM62.1 °F59.0 °F90 %30.18 in8.0 miNE (40°)4.6 mphOvercast
6:08 AM63.0 °F59.0 °F87 %30.19 in9.0 miEast (80°)3.5 mphOvercast
6:53 AM63.0 °F60.1 °F90 %30.17 in7.0 miENE (60°)3.5 mphOvercast
7:20 AM63.0 °F60.1 °F90 %30.18 in8.0 miEast (80°)3.5 mphOvercast
7:31 AM63.0 °F60.1 °F90 %30.18 in7.0 miENE (60°)3.5 mphOvercast
7:39 AM64.0 °F60.1 °F87 %30.18 in6.0 miCalmOvercast
7:53 AM64.9 °F61.0 °F87 %30.18 in7.0 miCalmOvercast
8:35 AM66.0 °F61.0 °F84 %30.18 in10.0 miVariable3.5 mphOvercast
8:53 AM66.0 °F61.0 °F84 %30.18 in10.0 miCalmOvercast
9:06 AM66.9 °F62.1 °F84 %30.18 in10.0 miCalmOvercast
9:53 AM68.0 °F63.0 °F84 %30.17 in10.0 miSE (140°)5.8 mphOvercast
10:48 AM69.8 °F64.4 °F83 %30.17 in10.0 miSSE (160°)9.2 mphOvercast
10:53 AM71.1 °F64.0 °F78 %30.17 in10.0 miVariable4.6 mphOvercast
11:15 AM73.0 °F64.0 °F73 %30.17 in10.0 miSouth (170°)8.1 mphOvercast
11:53 AM73.0 °F64.0 °F73 %30.17 in10.0 miSouth (190°)9.2 mphOvercast
12:53 PM72.0 °F64.0 °F76 %30.16 in7.0 miSSE (160°)5.8 mphOvercast
1:34 PM72.0 °F66.0 °F81 %30.15 in5.0 miSE (140°)6.9 mphHaze
1:56 PM71.1 °F66.0 °F84 %30.14 in1.2 miSE (140°)8.1 mphHaze
2:02 PM72.0 °F66.9 °F84 %30.14 in2.0 miSSE (150°)4.6 mphHaze
2:10 PM73.9 °F69.1 °F85 %30.13 in5.0 miSE (140°)6.9 mphHaze
3:46 PM75.0 °F66.0 °F73 %30.09 in10.0 miSE (140°)11.5 mph20.7 mphMostly Cloudy
3:53 PM75.9 °F66.0 °F71 %30.08 in10.0 miSSE (160°)11.5 mph20.7 mphMostly Cloudy
4:12 PM75.0 °F64.9 °F71 %30.09 in10.0 miSE (140°)10.4 mph20.7 mphMostly Cloudy
4:53 PM75.9 °F66.0 °F71 %30.08 in10.0 miSSE (150°)11.5 mph20.7 mphMostly Cloudy
5:53 PM73.9 °F64.9 °F73 %30.08 in10.0 miSE (140°)12.7 mph20.7 mphMostly Cloudy
6:53 PM73.0 °F64.9 °F76 %30.08 in7.0 miSSE (160°)9.2 mphOvercast
7:53 PM72.0 °F64.9 °F78 %30.08 in7.0 miSouth (170°)5.8 mphOvercast
8:13 PM71.1 °F64.9 °F81 %30.09 in10.0 miSSE (160°)8.1 mphOvercast
8:53 PM71.1 °F64.9 °F81 %30.08 in10.0 miSSE (160°)6.9 mphOvercast
9:53 PM71.1 °F64.9 °F81 %30.08 in10.0 miSSE (160°)6.9 mphOvercast
10:53 PM71.1 °F64.0 °F78 %30.07 in10.0 miVariable3.5 mphOvercast
11:53 PM70.0 °F64.0 °F81 %30.05 in10.0 miSSE (150°)4.6 mphOvercast
Hourly data recorded from KFWN, located miles away from Port Jervis, New York







STORIES FROM OUR PARTNERS